Millville, NJ

5:49 PM EST on November 16, 2019 (GMT -0500)
Millville Municipal

Weather History for KMIV - October, 2019

Change the Weather History Date:

Sunday, October 20, 2019

  Actual Average Record
Temperature  
Mean Temperature 52 °F -  
Max Temperature 59 °F 63 °F 80 °F (1953)
Min Temperature 44 °F 42 °F 28 °F (1972)
Degree Days  
Heating Degree Days 14    
Growing Degree Days 2 (Base 50)    
Moisture  
Dew Point 52 °F    
Average Humidity 91    
Maximum Humidity 94    
Minimum Humidity 83    
Precipitation  
Precipitation 1.42 in - - ()
Sea Level Pressure  
Sea Level Pressure 29.93 in    
Wind  
Wind Speed 7 mph (NE)    
Max Wind Speed 20 mph    
Max Gust Speed 29 mph    
Visibility 6 miles    
Events Rain    
Averages and records for this station are not official NWS values.
T = Trace of Precipitation, MM = Missing Value Source: NWS Daily Summary

Daily Weather History Graph

Daily Weather History Graph

Search for Another Location

Airport or City:

Astronomy

Oct. 20, 2019 Rise Set
Actual Time 7:15 AM EDT 6:14 PM EDT
Civil Twilight 6:47 AM EDT 6:41 PM EDT
Nautical Twilight 6:16 AM EDT 7:12 PM EDT
Astronomical Twilight 5:45 AM EDT 7:43 PM EDT
Moon 11:22 PM EDT (10/20) 1:39 PM EDT (10/20)
Length of Visible Light 11h 53m
Length of Day
10h 59m
Waning Gibbous, 59% of the Moon is Illuminated
Oct 20
Waning Gibbous
Oct 21
Last Quarter
Oct 27
New
Nov 4
First Quarter
Nov 12
Full

Hourly Weather History & Observations

Time (EDT) Temp. Dew Point Humidity Pressure Visibility Wind Dir Wind Speed Gust Speed Precip Events Conditions
12:54 AM 46.9 °F 44.1 °F 90% 30.04 in 10.0 mi Calm Calm - N/A   Clear
1:54 AM 46.0 °F 44.1 °F 93% 30.03 in 10.0 mi Calm Calm - N/A   Clear
2:54 AM 45.0 °F 42.1 °F 90% 30.03 in 8.0 mi Calm Calm - N/A   Clear
3:54 AM 44.1 °F 42.1 °F 93% 29.99 in 10.0 mi Calm Calm - N/A   Clear
4:54 AM 45.0 °F 43.0 °F 93% 30.00 in 10.0 mi Calm Calm - N/A   Clear
5:54 AM 46.9 °F 44.1 °F 90% 29.99 in 10.0 mi Calm Calm - N/A   Partly Cloudy
6:54 AM 48.9 °F 45.0 °F 86% 29.99 in 10.0 mi Calm Calm - N/A   Clear
7:54 AM 51.1 °F 46.0 °F 83% 30.01 in 10.0 mi Calm Calm - N/A   Mostly Cloudy
8:54 AM 53.1 °F 48.0 °F 83% 30.01 in 10.0 mi East 3.5 mph - N/A   Mostly Cloudy
9:54 AM 55.0 °F 51.1 °F 86% 30.00 in 8.0 mi ENE 4.6 mph - 0.01 in Rain Light Rain
10:54 AM 57.0 °F 53.1 °F 87% 30.01 in 6.0 mi ENE 4.6 mph - 0.05 in Rain Light Rain
11:54 AM 57.0 °F 55.0 °F 93% 29.99 in 4.0 mi NE 5.8 mph - 0.10 in Rain Light Rain
12:54 PM 57.9 °F 55.9 °F 93% 29.96 in 4.0 mi NE 8.1 mph - 0.10 in Rain Light Rain
1:05 PM 57.9 °F 55.9 °F 93% 29.96 in 5.0 mi NE 9.2 mph - 0.02 in Rain Light Rain
1:54 PM 59.0 °F 55.9 °F 90% 29.92 in 2.5 mi NE 12.7 mph - 0.11 in Rain Heavy Rain
2:05 PM 57.9 °F 55.9 °F 93% 29.92 in 5.0 mi NE 10.4 mph - 0.02 in Rain Light Rain
2:37 PM 57.9 °F 55.9 °F 93% 29.90 in 5.0 mi NE 13.8 mph - 0.06 in Rain Light Rain
2:50 PM 57.2 °F 55.4 °F 94% 29.90 in 4.0 mi NE 12.7 mph - 0.09 in Rain Rain
2:54 PM 57.9 °F 55.9 °F 93% 29.89 in 5.0 mi NE 12.7 mph - 0.10 in Rain Light Rain
3:54 PM 57.9 °F 55.0 °F 90% 29.87 in 5.0 mi NE 17.3 mph 23.0 mph 0.15 in Rain Light Rain
4:42 PM 57.9 °F 55.0 °F 90% 29.86 in 2.0 mi NE 16.1 mph 24.2 mph 0.14 in Rain Heavy Rain
4:54 PM 57.9 °F 55.0 °F 90% 29.86 in 2.0 mi ENE 15.0 mph - 0.23 in Rain Heavy Rain
5:13 PM 57.9 °F 55.0 °F 90% 29.86 in 4.0 mi ENE 17.3 mph 26.5 mph 0.07 in Rain Rain
5:21 PM 57.9 °F 55.0 °F 90% 29.86 in 4.0 mi NE 16.1 mph 26.5 mph 0.08 in Rain Rain
5:54 PM 57.0 °F 55.0 °F 93% 29.86 in 3.0 mi NE 15.0 mph - 0.14 in Rain Light Rain
6:02 PM 57.0 °F 55.0 °F 93% 29.87 in 3.0 mi NE 15.0 mph - 0.01 in Rain Light Rain
6:23 PM 55.9 °F 54.0 °F 93% 29.86 in 2.5 mi NE 19.6 mph 27.6 mph 0.09 in Rain Rain
6:42 PM 55.9 °F 54.0 °F 93% 29.86 in 4.0 mi NE 17.3 mph 25.3 mph 0.16 in Rain Rain
6:54 PM 55.9 °F 54.0 °F 93% 29.86 in 4.0 mi NE 17.3 mph 25.3 mph 0.20 in Rain Rain
7:54 PM 55.9 °F 53.1 °F 90% 29.87 in 4.0 mi NE 17.3 mph 28.8 mph 0.12 in Rain Light Rain
8:40 PM 54.0 °F 52.0 °F 93% 29.89 in 3.0 mi NNE 17.3 mph - 0.05 in Rain Light Rain
8:50 PM 53.6 °F 51.8 °F 94% 29.89 in 3.0 mi NE 17.3 mph - 0.07 in Rain Rain
8:54 PM 54.0 °F 52.0 °F 93% 29.89 in 3.0 mi NNE 13.8 mph - 0.07 in Rain Rain
9:29 PM 54.0 °F 52.0 °F 93% 29.89 in 10.0 mi NNE 15.0 mph 26.5 mph 0.04 in   Overcast
9:54 PM 54.0 °F 51.1 °F 90% 29.90 in 10.0 mi NNE 15.0 mph 25.3 mph 0.04 in   Overcast
10:10 PM 54.0 °F 52.0 °F 93% 29.90 in 10.0 mi NNE 16.1 mph - N/A   Overcast
10:29 PM 54.0 °F 51.1 °F 90% 29.91 in 10.0 mi NNE 15.0 mph 27.6 mph N/A   Overcast
10:54 PM 54.0 °F 51.1 °F 90% 29.91 in 10.0 mi NNE 16.1 mph 25.3 mph N/A   Overcast
11:54 PM 55.0 °F 51.1 °F 86% 29.90 in 10.0 mi NE 17.3 mph 26.5 mph N/A   Overcast